Weather History for Pinedale, WY

Change the Weather History Date:

Sunday, February 24, 2013

  Actual Average (KBPI) Record (KBPI)
Temperature  
Mean Temperature 16 °F 18 °F  
Max Temperature 28 °F 32 °F 49 °F (1981)
Min Temperature 3 °F 4 °F -15 °F (1997)
Degree Days  
Heating Degree Days 50 47  
Month to date heating degree days 1226  
Since 1 July heating degree days 7339  
Cooling Degree Days 0 0  
Month to date cooling degree days 0  
Year to date cooling degree days 0  
Moisture  
Dew Point 7 °F    
Average Humidity 65    
Maximum Humidity 85    
Minimum Humidity 43    
Precipitation  
Precipitation 0.00 in 0.01 in 0.20 in (1998)
Month to date precipitation 0.30  
Year to date precipitation 0.61  
Sea Level Pressure  
Sea Level Pressure 29.95 in    
Wind  
Wind Speed 12 mph (NW)    
Max Wind Speed 20 mph    
Max Gust Speed 25 mph    
Visibility 10 miles    
Events      
T = Trace of Precipitation, MM = Missing Value Source: NWS Daily Summary

Daily Weather History Graph

Daily Weather History Graph

Search for Another Location

Airport:

Trip Planner

Search our weather history database for the weather conditions in past years. The results will help you decide how hot, cold, wet, or windy it might be!

Date:

Astronomy

Feb. 24, 2013 Rise Set
Actual Time 7:02 AM MST 6:02 PM MST
Civil Twilight 6:33 AM MST 6:31 PM MST
Nautical Twilight 6:01 AM MST 7:04 PM MST
Astronomical Twilight 5:28 AM MST 7:37 PM MST
Moon 5:17 PM MST (2/24) 6:02 AM MST (2/24)
Length of Visible Light 11h 57m
Length of Day
11h 00m
Waxing Gibbous, 99% of the Moon is Illuminated
Feb 24
Waxing Gibbous
Feb 25
Full
Mar 4
Last Quarter
Mar 11
New
Mar 19
First Quarter

Hourly Weather History & Observations

Time (MST) Temp. Windchill Dew Point Humidity Pressure Visibility Wind Dir Wind Speed Gust Speed Precip Events Conditions
12:15 AM 17.6 °F 1.7 °F 10.4 °F 73% 29.74 in 10.0 mi WNW 18.4 mph 25.3 mph N/A   Overcast
12:35 AM 17.6 °F 1.7 °F 10.4 °F 73% 29.74 in 10.0 mi WNW 18.4 mph 25.3 mph N/A   Overcast
12:55 AM 17.6 °F 1.7 °F 10.4 °F 73% 29.75 in 10.0 mi WNW 18.4 mph - N/A   Overcast
1:15 AM 17.6 °F 1.7 °F 10.4 °F 73% 29.75 in 10.0 mi WNW 18.4 mph - N/A   Overcast
1:35 AM 17.6 °F 1.7 °F 10.4 °F 73% 29.76 in 10.0 mi WNW 18.4 mph - N/A   Overcast
1:55 AM 17.6 °F 2.7 °F 10.4 °F 73% 29.77 in 10.0 mi WNW 16.1 mph - N/A   Overcast
2:15 AM 17.6 °F 3.7 °F 10.4 °F 73% 29.79 in 10.0 mi WNW 13.8 mph - N/A   Overcast
2:35 AM 17.6 °F 6.4 °F 10.4 °F 73% 29.79 in 10.0 mi WNW 9.2 mph - N/A   Overcast
2:55 AM 17.6 °F 8.2 °F 10.4 °F 73% 29.79 in 10.0 mi West 6.9 mph - N/A   Overcast
3:15 AM 15.8 °F 5.1 °F 10.4 °F 79% 29.80 in 10.0 mi West 8.1 mph - N/A   Mostly Cloudy
3:35 AM 14.0 °F 2.9 °F 8.6 °F 79% 29.80 in 10.0 mi West 8.1 mph - N/A   Overcast
3:55 AM 14.0 °F -0.2 °F 8.6 °F 79% 29.81 in 10.0 mi West 12.7 mph - N/A   Overcast
4:15 AM 14.0 °F -0.2 °F 8.6 °F 79% 29.82 in 10.0 mi WNW 12.7 mph - N/A   Overcast
4:35 AM 14.0 °F 1.2 °F 8.6 °F 79% 29.83 in 10.0 mi WNW 10.4 mph 17.3 mph N/A   Overcast
4:55 AM 14.0 °F 3.9 °F 6.8 °F 73% 29.85 in 10.0 mi West 6.9 mph - N/A   Mostly Cloudy
5:15 AM 12.2 °F 2.9 °F 5.0 °F 73% 29.85 in 10.0 mi WNW 5.8 mph - N/A   Scattered Clouds
5:35 AM 10.4 °F -0.4 °F 3.2 °F 73% 29.86 in 10.0 mi West 6.9 mph - N/A   Clear
5:55 AM 10.4 °F -0.4 °F 5.0 °F 79% 29.87 in 10.0 mi WNW 6.9 mph - N/A   Clear
6:15 AM 8.6 °F -1.3 °F 3.2 °F 79% 29.88 in 10.0 mi WNW 5.8 mph - N/A   Clear
6:35 AM 5.0 °F -9.1 °F 1.4 °F 85% 29.89 in 10.0 mi NW 9.2 mph - N/A   Clear
6:55 AM 8.6 °F -4.7 °F 3.2 °F 79% 29.91 in 10.0 mi WNW 9.2 mph - N/A   Clear
7:15 AM 5.0 °F -6.9 °F -0.4 °F 78% 29.92 in 10.0 mi NW 6.9 mph - N/A   Clear
7:35 AM 3.2 °F -6.2 °F -0.4 °F 85% 29.93 in 10.0 mi NW 4.6 mph - N/A   Clear
7:55 AM 5.0 °F -5.6 °F 1.4 °F 85% 29.93 in 10.0 mi NW 5.8 mph - N/A   Clear
8:15 AM 8.6 °F -4.7 °F 1.4 °F 73% 29.93 in 10.0 mi NW 9.2 mph - N/A   Clear
8:35 AM 10.4 °F -2.4 °F 3.2 °F 73% 29.94 in 10.0 mi NW 9.2 mph - N/A   Clear
8:55 AM 14.0 °F 0.5 °F 5.0 °F 67% 29.95 in 10.0 mi NW 11.5 mph - N/A   Clear
9:15 AM 15.8 °F 0.9 °F 5.0 °F 62% 29.97 in 10.0 mi WNW 15.0 mph - N/A   Clear
9:35 AM 17.6 °F 3.2 °F 5.0 °F 58% 29.97 in 10.0 mi WNW 15.0 mph - N/A   Clear
9:55 AM 19.4 °F 7.2 °F 6.8 °F 58% 29.98 in 10.0 mi NW 11.5 mph - N/A   Clear
10:15 AM 19.4 °F 7.2 °F 8.6 °F 63% 29.98 in 10.0 mi NW 11.5 mph - N/A   Clear
10:35 AM 21.2 °F 9.5 °F 6.8 °F 54% 29.98 in 10.0 mi NW 11.5 mph - N/A   Clear
10:55 AM 23.0 °F 11.1 °F 8.6 °F 54% 29.99 in 10.0 mi WNW 12.7 mph - N/A   Clear
11:15 AM 23.0 °F 11.7 °F 8.6 °F 54% 29.99 in 10.0 mi WNW 11.5 mph - N/A   Clear
11:35 AM 24.8 °F 14.6 °F 10.4 °F 54% 30.00 in 10.0 mi WNW 10.4 mph - N/A   Clear
11:55 AM 24.8 °F 14.6 °F 8.6 °F 50% 30.00 in 10.0 mi WNW 10.4 mph - N/A   Clear
12:15 PM 26.6 °F 16.8 °F 10.4 °F 51% 30.00 in 10.0 mi WNW 10.4 mph - N/A   Clear
12:35 PM 26.6 °F 16.8 °F 8.6 °F 47% 30.00 in 10.0 mi West 10.4 mph - N/A   Clear
12:55 PM 26.6 °F 18.2 °F 10.4 °F 51% 29.99 in 10.0 mi WNW 8.1 mph - N/A   Clear
1:15 PM 28.4 °F 20.4 °F 8.6 °F 43% 29.99 in 10.0 mi NW 8.1 mph - N/A   Clear
1:35 PM 28.4 °F 22.2 °F 8.6 °F 43% 29.98 in 10.0 mi NW 5.8 mph - N/A   Clear
1:55 PM 28.4 °F 21.2 °F 8.6 °F 43% 29.98 in 10.0 mi NW 6.9 mph - N/A   Clear
2:15 PM 28.4 °F 21.2 °F 8.6 °F 43% 29.98 in 10.0 mi NW 6.9 mph - N/A   Clear
2:35 PM 28.4 °F 20.4 °F 10.4 °F 47% 29.98 in 10.0 mi WNW 8.1 mph 16.1 mph N/A   Clear
2:55 PM 28.4 °F 22.2 °F 8.6 °F 43% 29.99 in 10.0 mi WNW 5.8 mph - N/A   Clear
3:15 PM 28.4 °F 18.5 °F 10.4 °F 47% 29.99 in 10.0 mi NW 11.5 mph - N/A   Clear
3:35 PM 28.4 °F 19.1 °F 10.4 °F 47% 29.99 in 10.0 mi WNW 10.4 mph - N/A   Clear
3:55 PM 28.4 °F 18.5 °F 10.4 °F 47% 30.00 in 10.0 mi NW 11.5 mph - N/A   Clear
4:15 PM 28.4 °F 18.5 °F 12.2 °F 51% 30.00 in 10.0 mi WNW 11.5 mph - N/A   Clear
4:35 PM 28.4 °F 17.5 °F 10.4 °F 47% 30.01 in 10.0 mi WNW 13.8 mph - N/A   Clear
4:55 PM 26.6 °F 14.3 °F 10.4 °F 51% 30.01 in 10.0 mi WNW 16.1 mph - N/A   Clear
5:15 PM 26.6 °F 15.7 °F 10.4 °F 51% 30.01 in 10.0 mi WNW 12.7 mph - N/A   Clear
5:35 PM 24.8 °F 14.0 °F 10.4 °F 54% 30.01 in 10.0 mi WNW 11.5 mph - N/A   Clear
5:55 PM 23.0 °F 12.4 °F 10.4 °F 59% 30.01 in 10.0 mi West 10.4 mph - N/A   Clear
6:15 PM 21.2 °F 10.1 °F 8.6 °F 58% 30.02 in 10.0 mi West 10.4 mph - N/A   Clear
6:35 PM 19.4 °F 7.2 °F 8.6 °F 63% 30.03 in 10.0 mi West 11.5 mph - N/A   Clear
6:55 PM 19.4 °F 5.0 °F 8.6 °F 63% 30.03 in 10.0 mi WNW 16.1 mph - N/A   Clear
7:15 PM 17.6 °F 2.2 °F 8.6 °F 68% 30.05 in 10.0 mi WNW 17.3 mph - N/A   Clear
7:35 PM 17.6 °F 1.3 °F 8.6 °F 68% 30.05 in 10.0 mi WNW 19.6 mph - N/A   Clear
7:55 PM 15.8 °F 1.4 °F 6.8 °F 68% 30.05 in 10.0 mi NW 13.8 mph - N/A   Clear
8:15 PM 14.0 °F 2.9 °F 5.0 °F 67% 30.06 in 10.0 mi North 8.1 mph - N/A   Clear
8:35 PM 14.0 °F 3.9 °F 5.0 °F 67% 30.06 in 10.0 mi North 6.9 mph - N/A   Clear
8:55 PM 10.4 °F 2.2 °F 5.0 °F 79% 30.06 in 10.0 mi North 4.6 mph - N/A   Clear
9:15 PM 15.8 °F 2.7 °F 6.8 °F 68% 30.06 in 10.0 mi WNW 11.5 mph - N/A   Clear
9:35 PM 12.2 °F 6.1 °F 5.0 °F 73% 30.06 in 10.0 mi North 3.5 mph - N/A   Scattered Clouds
9:55 PM 12.2 °F 0.7 °F 5.0 °F 73% 30.07 in 10.0 mi NNW 8.1 mph - N/A   Scattered Clouds
10:15 PM 12.2 °F 2.9 °F 3.2 °F 67% 30.07 in 10.0 mi NNW 5.8 mph - N/A   Clear
10:35 PM 10.4 °F 2.2 °F 3.2 °F 73% 30.07 in 10.0 mi NNW 4.6 mph - N/A   Clear
10:55 PM 12.2 °F -1.8 °F 3.2 °F 67% 30.07 in 10.0 mi NW 11.5 mph - N/A   Clear
11:15 PM 12.2 °F -1.0 °F 3.2 °F 67% 30.06 in 10.0 mi WNW 10.4 mph - N/A   Clear
11:35 PM 12.2 °F -2.5 °F 3.2 °F 67% 30.05 in 10.0 mi NW 12.7 mph - N/A   Clear
11:55 PM 10.4 °F -1.5 °F 3.2 °F 73% 30.05 in 10.0 mi NW 8.1 mph - N/A   Clear